Weather History for 63887 - October, 2013

Change the Weather History Date:

Monday, October 14, 2013

  Actual Average Record
Temperature  
Mean Temperature 71 °F -  
Max Temperature 87 °F - - ()
Min Temperature 55 °F - - ()
Cooling Degree Days 6    
Growing Degree Days 21 (Base 50)    
Moisture  
Dew Point 46 °F    
Average Humidity 41    
Maximum Humidity 77    
Minimum Humidity 11    
Precipitation  
Precipitation 0.00 in - - ()
Sea Level Pressure  
Sea Level Pressure 30.16 in    
Wind  
Wind Speed 7 mph ()    
Max Wind Speed 26 mph    
Max Gust Speed -    
Visibility 9.6 miles    
Events      
T = Trace of Precipitation, MM = Missing Value Source: Averaged Metar Reports

Daily Weather History Graph

Daily Weather History Graph

Search for Another Location

Airport or City:

Trip Planner

Search our weather history database for the weather conditions in past years. The results will help you decide how hot, cold, wet, or windy it might be!

Date:

Astronomy

Oct. 14, 2013 Rise Set
Actual Time 6:15 AM EAT 6:30 PM EAT
Civil Twilight 5:54 AM EAT 6:51 PM EAT
Nautical Twilight 5:29 AM EAT 7:16 PM EAT
Astronomical Twilight 5:04 AM EAT 7:41 PM EAT
Moon 2:40 PM EAT (10/14) 2:24 AM EAT (10/14)
Length of Visible Light 12h 57m
Length of Day
12h 15m
Waxing Gibbous, 76% of the Moon is Illuminated
Oct 14
Waxing Gibbous
Oct 19
Full
Oct 27
Last Quarter
Nov 3
New
Nov 10
First Quarter

Hourly Weather History & Observations

Time (EAT) Temp. Dew Point Humidity Pressure Visibility Wind Dir Wind Speed Gust Speed Precip Events Conditions
12:00 AM 65 °F 52 °F 54%  in 19 mi Calm Calm - -   Scattered Clouds
12:00 AM 64.4 °F 53.6 °F 68% 30.15 in 6.2 mi Calm Calm - N/A   Partly Cloudy
2:00 AM 62.6 °F 50.0 °F 63% 30.12 in 6.2 mi Calm Calm - N/A   Clear
3:00 AM 62 °F 50 °F 55%  in 19 mi Calm Calm - -  
3:00 AM 62.6 °F 50.0 °F 63% 30.12 in 6.2 mi Calm Calm - N/A   Clear
4:00 AM 60.8 °F 50.0 °F 68% 30.12 in 6.2 mi Calm Calm - N/A   Clear
5:00 AM 60.8 °F 50.0 °F 68% 30.12 in 6.2 mi Calm Calm - N/A   Clear
6:00 AM 57 °F 50 °F 70%  in 19 mi Calm Calm - -   Scattered Clouds
6:00 AM 57.2 °F 50.0 °F 77% 30.15 in 6.2 mi Calm Calm - N/A   Partly Cloudy
7:00 AM 57.2 °F 50.0 °F 77% 30.18 in 6.2 mi Calm Calm - N/A   Partly Cloudy
8:00 AM 66.2 °F 51.8 °F 60% 30.18 in 6.2 mi Calm Calm - N/A   Partly Cloudy
9:00 AM 75 °F 47 °F 26%  in 19 mi SSE 13.8 mph - -   Scattered Clouds
9:00 AM 75.2 °F 46.4 °F 36% 30.24 in 6.2 mi SSE 13.8 mph - N/A   Partly Cloudy
10:00 AM 80.6 °F 41.0 °F 24% 30.24 in 6.2 mi ESE 11.5 mph - N/A   Partly Cloudy
11:00 AM 80.6 °F 48.2 °F 32% 30.24 in 6.2 mi East 26.5 mph - N/A   Partly Cloudy
12:00 PM 84 °F 38 °F 11%  in 19 mi East 23.0 mph - -   Scattered Clouds
12:00 PM 84.2 °F 39.2 °F 20% 30.18 in 6.2 mi East 23.0 mph - N/A   Partly Cloudy
1:00 PM 86.0 °F 37.4 °F 18% 30.15 in 6.2 mi East 17.3 mph - N/A   Partly Cloudy
2:00 PM 86.0 °F 37.4 °F 18% 30.12 in 6.2 mi East 23.0 mph - N/A   Partly Cloudy
3:00 PM 86 °F 43 °F 13%  in 19 mi East 18.4 mph - -   Scattered Clouds
3:00 PM 86.0 °F 42.8 °F 22% 30.09 in 6.2 mi East 18.4 mph - N/A   Partly Cloudy
4:00 PM 86.0 °F 41.0 °F 20% 30.09 in 6.2 mi SE 21.9 mph - N/A   Partly Cloudy
5:00 PM 84.2 °F 42.8 °F 23% 30.12 in 6.2 mi SE 26.5 mph - N/A   Partly Cloudy
6:00 PM 81 °F 48 °F 21%  in 19 mi ESE 19.6 mph - -   Scattered Clouds
6:00 PM 80.6 °F 48.2 °F 32% 30.12 in 6.2 mi ESE 19.6 mph - N/A   Partly Cloudy
7:00 PM 73.4 °F 42.8 °F 33% 30.15 in 6.2 mi ESE 11.5 mph - N/A   Partly Cloudy
8:00 PM 71.6 °F 39.2 °F 31% 30.15 in 6.2 mi ESE 9.2 mph - N/A   Clear
9:00 PM 69 °F 47 °F 34%  in 19 mi ESE 11.5 mph - -  
9:00 PM 69.8 °F 41.0 °F 35% 30.18 in 6.2 mi ESE 11.5 mph - N/A   Clear
10:00 PM 68.0 °F 48.2 °F 49% 30.24 in 6.2 mi SSE 11.5 mph - N/A   Clear